TimeEST,TemperatureF,Dew PointF,Humidity,Sea Level PressureIn,VisibilityMPH,Wind Direction,Wind SpeedMPH,Gust SpeedMPH,PrecipitationIn,Events,Conditions,WindDirDegrees,DateUTC
12:15 AM,14.0,6.8,73,30.14,4.0,NW,12.7,21.9,N/A,,Haze,320,2013-02-10 05:15:00
12:35 AM,14.0,6.8,73,30.15,10.0,NW,11.5,18.4,N/A,,Clear,320,2013-02-10 05:35:00
12:55 AM,14.0,6.8,73,30.16,1.5,NW,10.4,-,N/A,,Haze,320,2013-02-10 05:55:00
1:15 AM,14.0,5.0,67,30.17,10.0,NW,9.2,17.3,N/A,,Clear,320,2013-02-10 06:15:00
1:35 AM,14.0,5.0,67,30.18,10.0,NW,10.4,16.1,N/A,,Clear,320,2013-02-10 06:35:00
1:55 AM,14.0,5.0,67,30.18,1.5,NW,8.1,-,N/A,,Haze,320,2013-02-10 06:55:00
2:15 AM,14.0,5.0,67,30.19,10.0,NW,10.4,16.1,N/A,,Clear,320,2013-02-10 07:15:00
2:35 AM,14.0,5.0,67,30.19,5.0,NW,10.4,19.6,N/A,,Haze,320,2013-02-10 07:35:00
2:55 AM,14.0,5.0,67,30.20,6.0,NNW,8.1,-,N/A,,Haze,330,2013-02-10 07:55:00
3:15 AM,12.2,5.0,73,30.20,10.0,NW,6.9,-,N/A,,Clear,310,2013-02-10 08:15:00
3:35 AM,12.2,5.0,73,30.22,10.0,NW,9.2,-,N/A,,Clear,310,2013-02-10 08:35:00
3:55 AM,12.2,5.0,73,30.22,10.0,NW,10.4,-,N/A,,Clear,310,2013-02-10 08:55:00
4:15 AM,10.4,5.0,79,30.23,10.0,NW,9.2,-,N/A,,Clear,310,2013-02-10 09:15:00
4:35 AM,10.4,5.0,79,30.24,3.0,NW,9.2,-,N/A,,Haze,320,2013-02-10 09:35:00
4:55 AM,10.4,5.0,79,30.25,10.0,NW,9.2,-,N/A,,Clear,310,2013-02-10 09:55:00
5:15 AM,10.4,3.2,73,30.26,10.0,NW,8.1,-,N/A,,Clear,310,2013-02-10 10:15:00
5:35 AM,10.4,3.2,73,30.28,5.0,NW,10.4,-,N/A,,Haze,310,2013-02-10 10:35:00
5:55 AM,10.4,3.2,73,30.28,10.0,NW,10.4,-,N/A,,Clear,320,2013-02-10 10:55:00
6:15 AM,10.4,5.0,79,30.29,10.0,NW,10.4,-,N/A,,Clear,310,2013-02-10 11:15:00
6:35 AM,10.4,3.2,73,30.29,1.8,NW,10.4,-,N/A,,Haze,310,2013-02-10 11:35:00
6:55 AM,12.2,3.2,67,30.31,3.0,NW,10.4,17.3,N/A,,Haze,320,2013-02-10 11:55:00
7:15 AM,12.2,3.2,67,30.32,5.0,NW,9.2,-,N/A,,Haze,320,2013-02-10 12:15:00
7:35 AM,14.0,3.2,62,30.33,2.0,NW,11.5,17.3,N/A,,Haze,320,2013-02-10 12:35:00
7:55 AM,14.0,3.2,62,30.33,3.0,NW,10.4,18.4,N/A,,Haze,320,2013-02-10 12:55:00
8:15 AM,15.8,5.0,62,30.34,1.0,NW,10.4,-,N/A,,Haze,320,2013-02-10 13:15:00
8:35 AM,15.8,5.0,62,30.35,0.8,NW,10.4,-,N/A,,Haze,320,2013-02-10 13:35:00
8:55 AM,17.6,5.0,58,30.36,10.0,NW,10.4,-,N/A,,Clear,320,2013-02-10 13:55:00
9:15 AM,17.6,6.8,63,30.36,10.0,NNW,9.2,-,N/A,,Clear,330,2013-02-10 14:15:00
9:35 AM,19.4,6.8,58,30.36,1.2,NNW,10.4,-,N/A,,Haze,330,2013-02-10 14:35:00
9:55 AM,21.2,10.4,63,30.37,1.0,NW,8.1,-,N/A,,Haze,310,2013-02-10 14:55:00
10:15 AM,23.0,10.4,59,30.38,1.2,NW,6.9,-,N/A,,Haze,310,2013-02-10 15:15:00
10:35 AM,23.0,10.4,59,30.38,8.0,NW,8.1,-,N/A,,Clear,310,2013-02-10 15:35:00
10:55 AM,24.8,12.2,59,30.38,10.0,NNW,5.8,-,N/A,,Clear,330,2013-02-10 15:55:00
11:15 AM,26.6,10.4,51,30.37,10.0,NNW,4.6,-,N/A,,Clear,330,2013-02-10 16:15:00
11:35 AM,26.6,12.2,55,30.37,10.0,NNW,5.8,-,N/A,,Clear,340,2013-02-10 16:35:00
11:55 AM,28.4,14.0,55,30.36,10.0,NNW,5.8,-,N/A,,Clear,330,2013-02-10 16:55:00
12:15 PM,28.4,12.2,51,30.36,10.0,NNW,4.6,-,N/A,,Clear,330,2013-02-10 17:15:00
12:35 PM,28.4,17.6,64,30.37,10.0,WNW,9.2,-,N/A,,Clear,290,2013-02-10 17:35:00
12:55 PM,28.4,15.8,59,30.37,10.0,NW,8.1,-,N/A,,Clear,310,2013-02-10 17:55:00
1:15 PM,28.4,14.0,55,30.36,10.0,NW,9.2,-,N/A,,Clear,310,2013-02-10 18:15:00
1:35 PM,30.2,15.8,55,30.35,10.0,WNW,6.9,-,N/A,,Clear,290,2013-02-10 18:35:00
1:55 PM,30.2,17.6,60,30.35,10.0,West,6.9,-,N/A,,Clear,260,2013-02-10 18:55:00
2:15 PM,30.2,17.6,60,30.35,10.0,West,8.1,-,N/A,,Clear,260,2013-02-10 19:15:00
2:35 PM,30.2,15.8,55,30.36,10.0,West,8.1,-,N/A,,Clear,260,2013-02-10 19:35:00
2:55 PM,32.0,15.8,51,30.36,10.0,West,8.1,-,N/A,,Clear,280,2013-02-10 19:55:00
3:15 PM,30.2,17.6,60,30.37,10.0,West,5.8,-,N/A,,Clear,260,2013-02-10 20:15:00
3:35 PM,28.4,19.4,69,30.37,10.0,WSW,6.9,-,N/A,,Clear,240,2013-02-10 20:35:00
3:55 PM,28.4,17.6,64,30.37,10.0,West,6.9,-,N/A,,Clear,260,2013-02-10 20:55:00
4:15 PM,28.4,17.6,64,30.39,10.0,WSW,5.8,-,N/A,,Clear,240,2013-02-10 21:15:00
4:35 PM,28.4,17.6,64,30.37,10.0,Calm,Calm,-,N/A,,Clear,0,2013-02-10 21:35:00
4:55 PM,28.4,17.6,64,30.37,10.0,WSW,4.6,-,N/A,,Clear,250,2013-02-10 21:55:00
5:15 PM,26.6,17.6,69,30.36,10.0,WSW,4.6,-,N/A,,Clear,250,2013-02-10 22:15:00
5:35 PM,24.8,19.4,80,30.37,10.0,West,3.5,-,N/A,,Clear,260,2013-02-10 22:35:00
5:55 PM,24.8,19.4,80,30.37,10.0,Calm,Calm,-,N/A,,Clear,0,2013-02-10 22:55:00
6:15 PM,23.0,19.4,86,30.38,10.0,Calm,Calm,-,N/A,,Clear,0,2013-02-10 23:15:00
6:35 PM,23.0,19.4,86,30.38,10.0,Calm,Calm,-,N/A,,Clear,0,2013-02-10 23:35:00
6:55 PM,23.0,19.4,86,30.37,10.0,Calm,Calm,-,N/A,,Clear,0,2013-02-10 23:55:00
7:15 PM,23.0,19.4,86,30.38,10.0,Calm,Calm,-,N/A,,Clear,0,2013-02-11 00:15:00
7:35 PM,19.4,17.6,93,30.38,10.0,Calm,Calm,-,N/A,,Clear,0,2013-02-11 00:35:00
7:55 PM,15.8,14.0,93,30.38,10.0,Calm,Calm,-,N/A,,Clear,0,2013-02-11 00:55:00
8:15 PM,17.6,15.8,93,30.38,10.0,Calm,Calm,-,N/A,,Clear,0,2013-02-11 01:15:00
8:35 PM,17.6,15.8,93,30.38,10.0,Calm,Calm,-,N/A,,Clear,0,2013-02-11 01:35:00
8:55 PM,17.6,15.8,93,30.38,8.0,Calm,Calm,-,N/A,,Clear,0,2013-02-11 01:55:00
9:15 PM,15.8,14.0,93,30.39,10.0,Calm,Calm,-,N/A,,Clear,0,2013-02-11 02:15:00
9:35 PM,15.8,14.0,93,30.38,9.0,Calm,Calm,-,N/A,,Clear,0,2013-02-11 02:35:00
9:55 PM,15.8,14.0,93,30.38,10.0,Calm,Calm,-,N/A,,Clear,0,2013-02-11 02:55:00
10:15 PM,14.0,10.4,86,30.37,10.0,Calm,Calm,-,N/A,,Clear,0,2013-02-11 03:15:00
10:35 PM,17.6,15.8,93,30.37,10.0,Calm,Calm,-,N/A,,Clear,0,2013-02-11 03:35:00
10:55 PM,15.8,12.2,86,30.37,3.0,Calm,Calm,-,N/A,,Clear,0,2013-02-11 03:55:00
11:15 PM,15.8,14.0,93,30.37,7.0,Calm,Calm,-,N/A,,Clear,0,2013-02-11 04:15:00
11:55 PM,14.0,10.4,86,30.36,10.0,Calm,Calm,-,N/A,,Clear,0,2013-02-11 04:55:00